{"data":{"norad_id":64544,"epoch":"2026-05-25T03:51:25.204896Z","epoch_age_seconds":57781,"freshness":"FRESH","line1":"1 64544U 25135S   26145.16070839  .00002441  00000+0  11668-3 0  9996","line2":"2 64544  97.4705 260.2141 0001278 171.5470 188.5787 15.19957633 51331","mean_motion":15.19957633,"eccentricity":0.0001278,"inclination_deg":97.4705,"raan_deg":260.2141,"arg_perigee_deg":171.547,"mean_anomaly_deg":188.5787,"bstar":0.00011668,"rev_number":5133,"period_min":94.73948278136,"perigee_km":505.08874621873,"apogee_km":506.84832359345,"semimajor_km":6884.1055349061,"source":"CELESTRAK","updated_at":"2026-05-25T13:38:04.584387Z"}}